Tracking 30995 objects as of 5-Jul-2025
HD Live streaming from Space Station
objects crossing your sky now

CZ-6A R/B

Track CZ-6A R/B now!
10-day predictions


NORAD ID: 58200
Int'l Code: 2023-168B
Perigee: 487.4 km
Apogee: 580.1 km
Inclination: 97.8 °
Period: 95.2 minutes
Semi major axis: 6904 km
RCS: Unknown
Launch date: October 31, 2023
Source: People's Republic of China (PRC)
Launch site: Taiyaun Space Center, China (TSC)

Note: This is a ROCKET BODY
Your satellite tracking list
Your tracking list is empty




NASA's NSSDC Master Catalog

Two Line Element Set (TLE):
1 58200U 23168B   25186.19103461  .00003923  00000-0  21338-3 0  9999
2 58200  97.7799 211.8753 0067181 108.6092 252.2450 15.13142689 92305
Source of the keplerian elements: AFSPC